User: anonymous   Login
Location: NJAA Observatory
(40.6819°N, 74.8979°W)
Time: 02:10:11
(UTC-05:00)
Language:

ALOS - Orbit

View from above orbital plane
View from above orbital plane
View from above satellite
View from above satellite

Ground track
Ground track

The orbit data is extracted from the following two-line orbital elements,

1 28931U 06002A   18051.84990287  .00000120  00000-0  32376-4 0  9991
2 28931  97.8257  71.5060 0000661  91.3800 268.7475 14.62459511643804
Epoch (UTC): 20 February 2018 20:23:51
Eccentricity: 0.0000661
inclination: 97.8257°
perigee height: 685 km
apogee height: 686 km
right ascension of ascending node: 71.5060°
argument of perigee: 91.3800°
revolutions per day: 14.62459511
mean anomaly at epoch: 268.7475°
orbit number at epoch: 64380

The dashed part of the orbit path shows where the satellite is in the earth's shadow,  

DLR